Location: Kaltenbach
(49.2000°N, 7.7500°E)
Time: 21:14:13
(UTC+00:00)

STARLINK-1081 - Pass Details

Date: 24 January 2020
Orbit: 348 x 351 km, 53.0° (Epoch: 17 February)

Event Time Altitude Azimuth Distance (km) Brightness Sun altitude
Rises 17:12:05 0° 273° (W) 2,240 8.2 -9.9°
Reaches altitude 10° 17:14:11 10° 281° (W) 1,399 6.8 -10.2°
Maximum altitude 17:17:10 41° 354° (N) 574 3.6 -10.7°
Enters shadow 17:19:16 17° 59° (ENE) 1,065 4.5 -11.0°
